Date String (YYYY-MM-DD hh:mm:ss) UTC,Instrument flags,Ambient pressure (hPa),Sample flow (lpm),Bypass flow (lpm),Sample temperature (°C),Ambient temperature (°C),ASC tube jacket temperature (°C),LED temperature (°C),Box temperature (°C),Sample RH (%),Span deviation,Mass concentration (μg/m³),Mass concentration (μg/m³),Mass concentration (μg/m³)
DateTimeUTC,F1_M11,P_M11,Q1_M11,Q2_M11,T1_M11,T2_M11,T3_M11,T4_M11,T5_M11,U1_M11,ZSPAN_M11,X0_M11,X2_M11,X1_M11
2021-09-25 14:00:00,,0830.6,5.00,0.00,30.2,29.3,00.0,39.3,32.0,13.8,0002.9,0016.76,0007.37,0005.93
2021-09-25 14:01:00,,0830.6,5.01,0.00,30.3,29.4,00.0,39.3,32.0,13.5,0003.0,0016.03,0007.40,0005.99
2021-09-25 14:02:00,,0830.6,4.99,0.00,30.3,29.4,00.0,39.3,32.0,13.9,0003.3,0016.16,0007.39,0006.04
2021-09-25 14:03:00,,0830.7,4.99,0.00,30.3,29.4,00.0,39.3,32.0,14.5,0003.3,0015.76,0007.37,0006.06
2021-09-25 14:04:00,,0830.7,5.01,0.00,30.3,29.4,00.0,39.4,32.0,14.7,0002.9,0014.82,0007.36,0006.08
2021-09-25 14:05:00,,0830.8,4.99,0.00,30.3,29.4,00.0,39.4,32.0,15.5,0002.6,0014.41,0007.26,0006.10
2021-09-25 14:06:00,,0830.8,5.00,0.00,30.3,29.4,00.0,39.4,32.0,16.2,0002.7,0014.46,0007.24,0006.10
2021-09-25 14:07:00,,0830.8,5.01,0.00,30.3,29.4,00.0,39.4,32.1,16.2,0002.8,0014.66,0007.27,0006.08
2021-09-25 14:08:00,,0830.8,5.00,0.00,30.3,29.5,00.0,39.4,32.1,16.2,0002.5,0014.97,0007.37,0006.05
2021-09-25 14:09:00,,0830.8,5.00,0.00,30.4,29.5,00.0,39.4,32.1,16.5,0002.1,0015.89,0007.42,0006.02
2021-09-25 14:10:00,,0830.8,5.00,0.00,30.4,29.5,00.0,39.4,32.1,16.3,0002.1,0016.21,0007.46,0005.99
2021-09-25 14:11:00,,0830.7,4.99,0.00,30.4,29.5,00.0,39.4,32.1,16.2,0002.0,0016.04,0007.38,0005.93
2021-09-25 14:12:00,,0830.7,5.00,0.00,30.4,29.6,00.0,39.4,32.1,16.3,0001.8,0016.66,0007.38,0005.88
2021-09-25 14:13:00,,0830.6,5.01,0.00,30.4,29.6,00.0,39.5,32.1,16.2,0001.2,0016.78,0007.39,0005.82
2021-09-25 14:14:00,,0830.6,5.00,0.00,30.4,29.6,00.0,39.5,32.1,16.2,0001.4,0017.61,0007.40,0005.77
2021-09-25 14:15:00,,0830.6,4.99,0.00,30.4,29.6,00.0,39.5,32.1,15.9,0002.0,0018.26,0007.42,0005.73
2021-09-25 14:16:00,,0830.6,5.00,0.00,30.4,29.6,00.0,39.5,32.1,16.1,0002.6,0018.20,0007.43,0005.69
2021-09-25 14:17:00,,0830.6,5.01,0.00,30.4,29.6,00.0,39.5,32.1,15.8,0002.5,0018.11,0007.42,0005.68
2021-09-25 14:18:00,,0830.6,4.99,0.00,30.4,29.6,00.0,39.5,32.1,15.6,0002.4,0018.69,0007.47,0005.69
2021-09-25 14:19:00,,0830.6,4.99,0.00,30.4,29.6,00.0,39.5,32.2,15.4,0002.5,0018.77,0007.42,0005.70
2021-09-25 14:20:00,,0830.7,5.01,0.00,30.5,29.6,00.0,39.5,32.2,15.2,0002.6,0018.13,0007.36,0005.72
2021-09-25 14:21:00,,0830.7,5.00,0.00,30.5,29.7,00.0,39.5,32.2,15.1,0002.7,0018.39,0007.29,0005.74
2021-09-25 14:22:00,,0830.7,4.99,0.00,30.5,29.7,00.0,39.6,32.2,15.8,0002.7,0020.17,0007.39,0005.76
2021-09-25 14:23:00,,0830.7,5.01,0.00,30.5,29.7,00.0,39.6,32.3,16.8,0002.6,0020.07,0007.36,0005.75
2021-09-25 14:24:00,,0830.8,5.00,0.00,30.5,29.7,00.0,39.6,32.3,17.0,0002.8,0020.06,0007.36,0005.75
2021-09-25 14:25:00,,0830.7,4.99,0.00,30.5,29.7,00.0,39.6,32.3,16.9,0002.7,0020.89,0007.38,0005.75
2021-09-25 14:26:00,,0830.8,5.01,0.00,30.5,29.7,00.0,39.6,32.3,17.1,0002.2,0020.94,0007.36,0005.75
2021-09-25 14:27:00,,0830.8,5.01,0.00,30.6,29.7,00.0,39.6,32.3,17.3,0001.8,0021.31,0007.41,0005.76
2021-09-25 14:28:00,,0830.8,4.99,0.00,30.6,29.7,00.0,39.6,32.3,16.9,0001.6,0021.98,0007.51,0005.78
2021-09-25 14:29:00,,0830.8,5.01,0.00,30.6,29.7,00.0,39.7,32.4,17.0,0002.0,0021.77,0007.48,0005.79
2021-09-25 14:30:00,,0830.7,5.00,0.00,30.6,29.7,00.0,39.7,32.3,16.6,0002.3,0022.40,0007.53,0005.79
2021-09-25 14:31:00,,0830.7,4.99,0.00,30.6,29.7,00.0,39.7,32.3,16.2,0002.3,0023.50,0007.56,0005.78
2021-09-25 14:32:00,,0830.7,5.01,0.00,30.6,29.7,00.0,39.7,32.4,16.0,0002.1,0023.19,0007.57,0005.75
2021-09-25 14:33:00,,0830.8,5.01,0.00,30.6,29.7,00.0,39.7,32.3,16.0,0002.1,0021.33,0007.51,0005.75
2021-09-25 14:34:00,,0830.8,4.98,0.00,30.6,29.7,00.0,39.7,32.3,15.5,0002.0,0021.72,0007.56,0005.75
2021-09-25 14:35:00,,0830.8,5.01,0.00,30.6,29.7,00.0,39.7,32.4,15.7,0002.2,0021.67,0007.59,0005.77
2021-09-25 14:36:00,,0830.8,5.00,0.00,30.6,29.7,00.0,39.7,32.4,15.9,0002.3,0020.72,0007.60,0005.78
2021-09-25 14:37:00,,0830.8,5.00,0.00,30.6,29.8,00.0,39.7,32.4,15.6,0002.8,0020.85,0007.55,0005.78
2021-09-25 14:38:00,,0830.8,5.00,0.00,30.6,29.8,00.0,39.7,32.4,15.6,0002.7,0021.95,0007.51,0005.78
2021-09-25 14:39:00,,0830.8,5.00,0.00,30.6,29.8,00.0,39.7,32.4,15.7,0002.5,0021.90,0007.44,0005.77
2021-09-25 14:40:00,,0830.8,5.00,0.00,30.6,29.8,00.0,39.7,32.4,15.7,0002.1,0021.57,0007.37,0005.77
2021-09-25 14:41:00,,0830.8,5.00,0.00,30.6,29.8,00.0,39.7,32.4,15.9,0002.1,0020.68,0007.28,0005.76
2021-09-25 14:42:00,,0830.8,4.99,0.00,30.6,29.8,00.0,39.7,32.3,16.1,0002.2,0019.66,0007.25,0005.77
2021-09-25 14:43:00,,0830.7,5.00,0.00,30.7,29.8,00.0,39.7,32.4,16.0,0002.2,0019.04,0007.26,0005.81
2021-09-25 14:44:00,,0830.7,5.01,0.00,30.7,29.8,00.0,39.7,32.4,16.0,0002.1,0019.04,0007.28,0005.84
2021-09-25 14:45:00,,0830.8,5.00,0.00,30.7,29.9,00.0,39.8,32.4,16.3,0002.4,0018.46,0007.23,0005.86
2021-09-25 14:46:00,,0830.8,4.99,0.00,30.7,29.9,00.0,39.8,32.4,16.2,0002.1,0018.31,0007.22,0005.90
2021-09-25 14:47:00,,0830.8,5.01,0.00,30.7,29.9,00.0,39.8,32.4,16.7,0002.3,0017.76,0007.24,0005.97
2021-09-25 14:48:00,,0830.8,4.99,0.00,30.7,29.9,00.0,39.8,32.4,17.1,0002.1,0017.55,0007.34,0006.04
2021-09-25 14:49:00,,0830.8,5.01,0.00,30.7,29.9,00.0,39.8,32.5,16.7,0002.3,0016.70,0007.39,0006.12
2021-09-25 14:50:00,,0830.7,4.99,0.00,30.7,29.9,00.0,39.8,32.5,16.5,0002.4,0016.52,0007.43,0006.16
2021-09-25 14:51:00,,0830.8,4.99,0.00,30.7,29.9,00.0,39.8,32.5,16.6,0002.0,0016.73,0007.44,0006.17
2021-09-25 14:52:00,,0830.8,5.01,0.00,30.7,29.9,00.0,39.8,32.5,16.6,0001.9,0016.63,0007.51,0006.21
2021-09-25 14:53:00,,0830.8,4.99,0.00,30.8,29.9,00.0,39.8,32.5,16.4,0001.8,0016.70,0007.62,0006.24
2021-09-25 14:54:00,,0830.8,5.00,0.00,30.8,29.9,00.0,39.8,32.5,16.3,0001.8,0016.87,0007.67,0006.24
2021-09-25 14:55:00,,0830.8,5.01,0.00,30.8,29.9,00.0,39.9,32.5,16.2,0001.8,0017.59,0007.68,0006.25
2021-09-25 14:56:00,,0830.8,4.99,0.00,30.8,29.9,00.0,39.9,32.5,16.2,0002.0,0018.34,0007.73,0006.28
2021-09-25 14:57:00,,0830.8,5.00,0.00,30.7,28.8,00.0,39.8,32.2,16.0,0002.1,0018.27,0007.74,0006.27
2021-09-25 14:58:00,,0830.7,5.00,0.00,30.6,27.2,00.0,39.8,31.9,16.0,0001.9,0018.41,0007.64,0006.23
2021-09-25 14:59:00,,0830.6,5.01,0.00,30.5,27.2,00.0,39.8,31.7,16.1,0002.1,0017.81,0007.58,0006.19
